Regional Weather Roundup
Issued by NWS Northern Indiana

Home | Current Version | Previous Version | Graphics & Text | Print | Product List | Glossary On
Versions: 1 2 3 4 5 6 7 8 9 10 11 12 13 14 15 16 17 18 19 20 21 22 23 24 25 26 27 28 29 30 31 32 33 34 35 36 37 38 39 40 41 42 43 44 45 46 47 48 49 50
000
ASUS43 KIWX 222210
RWRIWX

KIWX WEATHER ROUNDUP
NATIONAL WEATHER SERVICE NORTHERN INDIANA
600 PM EDT TUE JUL 22 2014

NOTE: "FAIR" INDICATES FEW OR NO CLOUDS BELOW 12,000 FEET WITH NO
SIGNIFICANT WEATHER AND/OR OBSTRUCTIONS TO VISIBILITY.

* THESE STATIONS ARE NOT UNDER NWS QUALITY CONTROL. THEY ALSO MAY NOT
  REPORT WEATHER SUCH AS PRECIPITATION OR FOG.

INZ001>027-222300-
NORTHERN INDIANA

CITY           SKY/WX    TMP DP  RH WIND       PRES   REMARKS
GARY*          PTSUNNY   90  72  55 SW14      29.97R HX  96
VALPARAISO     MOSUNNY   86  70  58 S14       29.98S
MICHIGAN CITY* SUNNY     84  68  58 S13       29.97S
LAPORTE*       SUNNY     84  68  57 S13       29.98S
KNOX*          SUNNY     86  68  55 SW12G18   29.96F
SOUTH BEND     SUNNY     88  67  49 S15       29.97F
ELKHART*       SUNNY     86  66  51 S12       29.98F
GOSHEN         SUNNY     88  68  51 SW13      29.98F
MONTICELLO*    MOSUNNY   85  71  63 S10       30.00S
LOGANSPORT*    SUNNY     84  68  58 S9        30.01F
ROCHESTER*     SUNNY     88  66  48 SW8G16    30.01R
WARSAW*        SUNNY     86  68  54 SW8       30.00F
ANGOLA*        SUNNY     88  68  51 SW12      30.00F
FORT WAYNE     MOSUNNY   89  65  44 SW14      30.01F
HUNTINGTON*    SUNNY     86  67  52 SW9       30.00F
PERU/GRISSOM   SUNNY     86  70  58 SW16      30.01F
MARION*        SUNNY     85  64  49 SW9       30.03F

$$
INZ028>050-222300-
CENTRAL INDIANA

CITY           SKY/WX    TMP DP  RH WIND       PRES   REMARKS
LAFAYETTE      MOSUNNY   84  68  58 S13       30.00S
KOKOMO*        SUNNY     88  68  51 SW13      30.01F
MUNCIE*        SUNNY     87  64  46 SW10      30.03F
INDIANAPOLIS   MOSUNNY   86  67  52 SW13      30.03F

$$
MIZ043>046-050>051-056>058-064>065-071>073-077>080-222300-
SOUTHWEST LOWER MICHIGAN

CITY           SKY/WX    TMP DP  RH WIND       PRES   REMARKS
BATTLE CREEK   SUNNY     87  67  51 SW15      29.97F
BENTON HARBOR  SUNNY     86  68  54 S15       29.95S
COLDWATER*     SUNNY     86  68  54 SW8       29.99F
HILLSDALE*     SUNNY     86  66  50 SW8       30.01S
HOLLAND        MOSUNNY   89  69  51 SW13      29.94R
GRAND RAPIDS   PTSUNNY   88  70  55 S13       29.93S
KALAMAZOO      SUNNY     87  68  52 S17       29.95F
STURGIS*       SUNNY     84  72  65 S8        29.98F
THREE RIVERS*  FAIR      85  71  62 S10G17    29.97F

$$
OHZ001>008-015>018-024>025-222300-
NORTHWEST OHIO

CITY           SKY/WX    TMP DP  RH WIND       PRES   REMARKS
WAUSEON*         N/A     88  66  48 SW8G15    29.99F
DEFIANCE       SUNNY     90  65  43 SW10      29.99F
FINDLAY        SUNNY     89  65  44 SW14      30.01F
TOLEDO EXPRESS SUNNY     89  65  44 SW12      29.99F
TOLEDO METCALF SUNNY     90  64  42 SW15      29.99F
LIMA           SUNNY     88  64  44 SW9       30.03F

$$
&&


USA.gov is the U.S. government's official web portal to all federal, state and local government web resources and services.